Hourly Data Report for January 18, 2022

PORT ALBERNI (AUT)
BRITISH COLUMBIA
Current Station Operator: ECCC - MSC

49°18'59.700" N
124°55'36.600" W
76.20 m
1036B06
71475
WQC

Download Data

Hourly Data (January 2022)
Hourly Data Report for January 18, 2022
TIME
LST
Temp Definition
°C
Dew Point Definition
°C
Rel Hum Definition
%
Precip. Amount Definition
mm

Wind Dir Definition
10's deg

Wind Spd Definition
km/h
Visibility Definition
km
Stn Press Definition
kPa
Hmdx Definition


Wind Chill Definition


Weather Definition


00:00 3.6 3.5 99 0.1 34 3   100.64     LegendNANA
01:00 3.5 3.4 100 0.1   0   100.68     LegendNANA
02:00 3.4 3.3 99 0.0   0   100.71     LegendNANA
03:00 3.2 3.2 99 0.0   0   100.74     LegendNANA
04:00 3.2 3.1 99 0.0 0 1   100.74     LegendNANA
05:00 3.3 3.3 100 0.0 33 3   100.82     LegendNANA
06:00 3.0 3.0 99 0.0   0   100.86     LegendNANA
07:00 3.2 3.1 100 0.0 0 1   100.90     LegendNANA
08:00 2.9 2.8 99 0.0   0   100.95     LegendNANA
09:00 3.2 3.1 99 0.0 0 1   100.98     LegendNANA
10:00 3.9 3.8 99 0.0 32 3   101.05     LegendNANA
11:00 4.3 3.9 98 0.0 34 2   101.09     LegendNANA
12:00 4.9 4.3 96 0.0 0 1   101.09     LegendNANA
13:00 5.6 4.8 95 0.0 31 2   101.12     LegendNANA
14:00 6.0 4.8 92 0.0 27 2   101.12     LegendNANA
15:00 6.2 5.4 94 0.0 23 1   101.17     LegendNANA
16:00 6.1 5.2 94 0.0 26 4   101.20     LegendNANA
17:00 5.3 4.8 97 0.0 21 3   101.23     LegendNANA
18:00 4.8 4.4 98 0.0 31 3   101.28     LegendNANA
19:00 4.2 4.0 99 0.0 0 1   101.31     LegendNANA
20:00 3.8 3.6 98 0.0 32 3   101.35     LegendNANA
21:00 4.0 3.8 99 0.0   0   101.37     LegendNANA
22:00 3.6 3.4 99 0.0   0   101.40     LegendNANA
23:00 3.9 3.8 99 0.0 28 4   101.44     LegendNANA

Notes on Data Quality.

Legend

  • E = Estimated
  • M = Missing
  • NA = Not Available*
  • [empty] = Indicates an unobserved value
Date modified: